sat.trackr.live / text

‹ back to catalog

STARLINK-35173

NORAD 65744 · 2025-216L

PAYLOAD ACTIVE UNKNOWN

§ Identity

Operator
Country
US
Launch date
2025-09-25
Launch site
AFETR
Launch vehicle
Mass (kg)
RCS (m²)

Purposes: comms

External: N2YO · Heavens-Above · Gunter

§ Orbital elements

Epoch: 2026-09-20T07:00:12.767616Z

Period
93.85 min
Inclination
53.1567°
Eccentricity
0.0001138
Mean motion
15.34407161 rev/d
Perigee alt
461.9 km
Apogee alt
463.5 km
Semi-major
6,840.8 km
B*
6.8985e-4
RAAN
146.4591°
Arg perigee
87.3449°
Mean anomaly
272.7684°
Rev number
5,642

§ Raw data

STARLINK-351731 65744U 25216L   26263.29181444  .00023008  00000+0  68985-3 0  99952 65744  53.1567 146.4591 0001138  87.3449 272.7684 15.34407161 56428

JSON: /api/v1/satellites/65744 · /tle

For live sub-satellite position, see the globe view (requires WebGL).

§ Visibility from observer

Set your observer location to see the next 7 days of passes ≥ 10°. The values pass through the URL so the page stays shareable.

No JS? Fill the form by hand. The geolocation button needs JavaScript.